Rutland, VT

6:23 PM EDT on July 25, 2017 (GMT -0400)
Rutland State

Weather History for KRUT - February, 2013

Change the Weather History Date:

Monday, February 11, 2013

  Actual Average Record
Temperature  
Mean Temperature 28 °F -  
Max Temperature 39 °F - 58 °F (1981)
Min Temperature 16 °F - -21 °F (1979)
Degree Days  
Heating Degree Days 37    
Month to date heating degree days 527  
Since 1 July heating degree days 4252  
Cooling Degree Days 0    
Month to date cooling degree days 0  
Year to date cooling degree days 0  
Moisture  
Dew Point 21 °F    
Average Humidity 60    
Maximum Humidity 92    
Minimum Humidity 28    
Precipitation  
Precipitation 0.00 in - 0.64 in (2002)
Month to date precipitation 0.00  
Year to date precipitation 1.24  
Sea Level Pressure  
Sea Level Pressure 29.85 in    
Wind  
Wind Speed 12 mph (SE)    
Max Wind Speed 20 mph    
Max Gust Speed 27 mph    
Visibility 10 miles    
Events      
T = Trace of Precipitation, MM = Missing Value Source: NWS Daily Summary

Daily Weather History Graph

Daily Weather History Graph

Search for Another Location

Airport or City:

Trip Planner

Search our weather history database for the weather conditions in past years. The results will help you decide how hot, cold, wet, or windy it might be!

Date:

Astronomy

Feb. 11, 2013 Rise Set
Actual Time 6:55 AM EST 5:17 PM EST
Civil Twilight 6:25 AM EST 5:46 PM EST
Nautical Twilight 5:52 AM EST 6:20 PM EST
Astronomical Twilight 5:18 AM EST 6:53 PM EST
Moon 7:14 AM EST (2/11) 7:16 PM EST (2/11)
Length of Visible Light 11h 21m
Length of Day
10h 21m
Waxing Crescent, 3% of the Moon is Illuminated
Feb 11
Waxing Crescent
Feb 17
First Quarter
Feb 25
Full
Mar 4
Last Quarter
Mar 11
New

Hourly Weather History & Observations

Time (EST) Temp. Windchill Dew Point Humidity Pressure Visibility Wind Dir Wind Speed Gust Speed Precip Events Conditions
12:15 AM 15.8 °F 5.1 °F 5.0 °F 62% 30.24 in 10.0 mi ESE 8.1 mph - N/A   Overcast
12:35 AM 15.8 °F 5.1 °F 5.0 °F 62% 30.21 in 10.0 mi SE 8.1 mph - N/A   Mostly Cloudy
12:55 AM 15.8 °F 6.1 °F 5.0 °F 62% 30.20 in 10.0 mi SSE 6.9 mph - N/A   Partly Cloudy
1:15 AM 15.8 °F 8.6 °F 6.8 °F 68% 30.19 in 10.0 mi SSE 4.6 mph - N/A   Partly Cloudy
1:35 AM 17.6 °F 9.3 °F 3.2 °F 53% 30.19 in 10.0 mi South 5.8 mph - N/A   Scattered Clouds
1:55 AM 19.4 °F 9.5 °F 5.0 °F 54% 30.17 in 10.0 mi SE 8.1 mph - N/A   Scattered Clouds
2:15 AM 19.4 °F 14.3 °F 3.2 °F 49% 30.16 in 10.0 mi SSE 3.5 mph - N/A   Scattered Clouds
2:35 AM 23.0 °F 14.7 °F 5.0 °F 46% 30.15 in 10.0 mi SE 6.9 mph - N/A   Clear
2:55 AM 24.8 °F 16.1 °F 5.0 °F 43% 30.14 in 10.0 mi SE 8.1 mph - N/A   Scattered Clouds
3:15 AM 28.4 °F 18.0 °F 1.4 °F 31% 30.13 in 10.0 mi SE 12.7 mph 20.7 mph N/A   Mostly Cloudy
3:35 AM 30.2 °F 19.3 °F 1.4 °F 29% 30.12 in 10.0 mi SE 15.0 mph - N/A   Overcast
3:55 AM 30.2 °F 18.5 °F 1.4 °F 29% 30.10 in 10.0 mi ESE 17.3 mph - N/A   Overcast
4:15 AM 30.2 °F 18.9 °F 1.4 °F 29% 30.08 in 10.0 mi ESE 16.1 mph - N/A   Overcast
4:35 AM 30.2 °F 18.9 °F 1.4 °F 29% 30.07 in 10.0 mi SE 16.1 mph - N/A   Overcast
4:55 AM 30.2 °F 20.2 °F 1.4 °F 29% 30.07 in 10.0 mi SE 12.7 mph - N/A   Overcast
5:15 AM 30.2 °F 19.3 °F 1.4 °F 29% 30.07 in 10.0 mi SE 15.0 mph 20.7 mph N/A   Overcast
5:35 AM 28.4 °F 16.2 °F 3.2 °F 34% 30.06 in 10.0 mi ESE 17.3 mph 23.0 mph N/A   Overcast
6:15 AM 30.2 °F 18.5 °F 3.2 °F 32% 30.04 in 10.0 mi ESE 17.3 mph 23.0 mph N/A   Overcast
6:55 AM 28.4 °F 15.8 °F 5.0 °F 37% 30.01 in 10.0 mi ESE 18.4 mph 24.2 mph N/A   Overcast
7:15 AM 28.4 °F 14.4 °F 6.8 °F 40% 30.00 in 10.0 mi ESE 23.0 mph 28.8 mph N/A   Overcast
7:35 AM 28.4 °F 15.4 °F 8.6 °F 43% 29.99 in 10.0 mi ESE 19.6 mph 26.5 mph N/A   Overcast
7:55 AM 28.4 °F 15.4 °F 8.6 °F 43% 30.00 in 10.0 mi ESE 19.6 mph 26.5 mph N/A   Overcast
8:15 AM 28.4 °F 14.7 °F 10.4 °F 47% 29.99 in 10.0 mi ESE 21.9 mph 27.6 mph N/A   Overcast
8:35 AM 28.4 °F 15.8 °F 10.4 °F 47% 29.98 in 10.0 mi SE 18.4 mph 25.3 mph N/A   Overcast
8:55 AM 26.6 °F 13.1 °F 15.8 °F 64% 29.98 in 3.0 mi ESE 19.6 mph 25.3 mph N/A   Overcast
9:15 AM 26.6 °F 13.8 °F 21.2 °F 80% 29.96 in 1.0 mi ESE 17.3 mph 21.9 mph N/A   Overcast
9:35 AM 26.6 °F 13.4 °F 23.0 °F 86% 29.94 in 2.0 mi ESE 18.4 mph 27.6 mph N/A   Overcast
9:55 AM 28.4 °F 15.4 °F 23.0 °F 80% 29.92 in 9.0 mi ESE 19.6 mph 24.2 mph N/A   Overcast
10:15 AM 30.2 °F 18.9 °F 24.8 °F 80% 29.90 in 10.0 mi ESE 16.1 mph 24.2 mph N/A   Overcast
10:35 AM 30.2 °F 18.5 °F 24.8 °F 80% 29.89 in 10.0 mi ESE 17.3 mph 20.7 mph N/A   Overcast
10:55 AM 32.0 °F 20.8 °F 26.6 °F 80% 29.87 in 10.0 mi SE 17.3 mph 23.0 mph N/A   Overcast
11:15 AM 33.8 °F 22.8 °F 26.6 °F 75% 29.84 in 10.0 mi ESE 18.4 mph 24.2 mph N/A   Overcast
11:35 AM 33.8 °F 23.2 °F 28.4 °F 81% 29.82 in 10.0 mi SE 17.3 mph 24.2 mph N/A   Overcast
11:55 AM 33.8 °F 23.2 °F 28.4 °F 81% 29.81 in 10.0 mi ESE 17.3 mph 24.2 mph N/A   Overcast
12:15 PM 33.8 °F 23.5 °F 28.4 °F 81% 29.80 in 10.0 mi SE 16.1 mph 21.9 mph N/A   Overcast
12:35 PM 33.8 °F 23.2 °F 30.2 °F 87% 29.79 in 10.0 mi SE 17.3 mph 21.9 mph N/A   Overcast
12:55 PM 35.6 °F 26.6 °F 30.2 °F 81% 29.77 in 10.0 mi ESE 13.8 mph - N/A   Overcast
1:15 PM 35.6 °F 28.6 °F 30.2 °F 81% 29.76 in 10.0 mi SE 9.2 mph - N/A   Overcast
1:35 PM 35.6 °F 27.1 °F 30.2 °F 81% 29.74 in 10.0 mi SE 12.7 mph - N/A   Overcast
1:55 PM 35.6 °F 27.1 °F 32.0 °F 87% 29.73 in 10.0 mi ESE 12.7 mph - N/A   Overcast
2:15 PM 37.4 °F 28.9 °F 32.0 °F 81% 29.71 in 10.0 mi SE 13.8 mph - N/A   Overcast
2:35 PM 37.4 °F 28.5 °F 32.0 °F 81% 29.69 in 10.0 mi ESE 15.0 mph - N/A   Mostly Cloudy
2:55 PM 37.4 °F 29.8 °F 32.0 °F 81% 29.69 in 10.0 mi SE 11.5 mph - N/A   Overcast
3:15 PM 39.2 °F 31.6 °F 33.8 °F 81% 29.68 in 10.0 mi ESE 12.7 mph - N/A   Overcast
3:35 PM 39.2 °F 32.5 °F 33.8 °F 81% 29.66 in 10.0 mi SE 10.4 mph - N/A   Overcast
3:55 PM 39.2 °F 32.0 °F 33.8 °F 81% 29.67 in 10.0 mi SE 11.5 mph - N/A   Overcast
4:15 PM 39.2 °F 33.0 °F 33.8 °F 81% 29.66 in 10.0 mi ESE 9.2 mph - N/A   Overcast
4:35 PM 39.2 °F 33.6 °F 33.8 °F 81% 29.65 in 10.0 mi East 8.1 mph - N/A   Overcast
4:55 PM 39.2 °F 32.5 °F 33.8 °F 81% 29.64 in 10.0 mi ESE 10.4 mph - N/A   Mostly Cloudy
5:55 PM 37.4 °F 29.3 °F 32.0 °F 81% 29.61 in 10.0 mi ESE 12.7 mph - N/A   Overcast
6:15 PM 35.6 °F 29.9 °F 32.0 °F 87% 29.62 in 10.0 mi East 6.9 mph - N/A   Overcast
6:35 PM 37.4 °F 30.3 °F 32.0 °F 81% 29.62 in 10.0 mi ESE 10.4 mph - N/A   Overcast
6:55 PM 37.4 °F 31.4 °F 32.0 °F 81% 29.62 in 10.0 mi ESE 8.1 mph - N/A   Overcast
7:15 PM 35.6 °F 29.9 °F 32.0 °F 87% 29.61 in 10.0 mi ESE 6.9 mph - N/A   Overcast
7:35 PM 35.6 °F 27.5 °F 30.2 °F 81% 29.61 in 10.0 mi ESE 11.5 mph - N/A   Overcast
7:55 PM 35.6 °F 32.8 °F 32.0 °F 87% 29.62 in 10.0 mi ESE 3.5 mph - N/A   Overcast
8:15 PM 35.6 °F - 30.2 °F 81% 29.63 in 10.0 mi Calm Calm - N/A   Overcast
8:35 PM 35.6 °F 30.7 °F 30.2 °F 81% 29.64 in 10.0 mi NE 5.8 mph - N/A   Overcast
8:55 PM 35.6 °F - 33.8 °F 93% 29.65 in 10.0 mi Calm Calm - N/A   Overcast
9:15 PM 35.6 °F - 32.0 °F 87% 29.65 in 10.0 mi Calm Calm - N/A   Overcast
9:35 PM 35.6 °F - 33.8 °F 93% 29.65 in 10.0 mi Calm Calm - N/A   Overcast
9:55 PM 37.4 °F 33.8 °F 33.8 °F 87% 29.64 in 10.0 mi ENE 4.6 mph - N/A   Overcast
10:15 PM 37.4 °F 32.8 °F 33.8 °F 87% 29.63 in 10.0 mi SE 5.8 mph - N/A   Overcast
10:35 PM 37.4 °F 30.3 °F 30.2 °F 75% 29.62 in 10.0 mi WSW 10.4 mph 21.9 mph N/A   Overcast
10:55 PM 37.4 °F 30.3 °F 32.0 °F 81% 29.62 in 10.0 mi SW 10.4 mph - N/A   Overcast
11:15 PM 35.6 °F 26.6 °F 32.0 °F 87% 29.62 in 10.0 mi WSW 13.8 mph 20.7 mph N/A   Overcast
11:35 PM 35.6 °F 28.6 °F 30.2 °F 81% 29.62 in 6.0 mi WSW 9.2 mph 20.7 mph N/A   Overcast
11:55 PM 35.6 °F 27.1 °F 28.4 °F 75% 29.62 in 9.0 mi WSW 12.7 mph 17.3 mph N/A   Overcast